MOLNIYA 3-39 1 20813U 90084A 08280.74047160 .00001080 00000-0 -45099-3 0 577 2 20813 062.2076 104.9665 7444689 266.2542 014.6652 02.00513323132211 MOLNIYA 1-80 1 21118U 91012A 08279.93405722 +.00000731 +00000-0 +82789-1 0 05244 2 21118 062.7347 306.7080 7310041 249.4571 023.2527 02.00697642129241 MOLNIYA 3-40 1 21196U 91022A 08280.90196744 -.00000039 00000-0 53405-1 0 8216 2 21196 062.3199 288.5825 7318645 251.4952 021.7602 02.00554825128562 MOLNIYA 1-81 1 21426U 91043A 08280.04354394 +.00000011 +00000-0 -62891-3 0 09770 2 21426 062.2285 278.5191 7368468 262.7000 016.4636 02.00623502126807 MOLNIYA 3-41 1 21706U 91065A 08280.58552560 .00000775 00000-0 47043-3 0 2758 2 21706 062.1294 103.2176 7366364 272.6949 013.2702 02.00643796124959 MOLNIYA 1-83 (Decayed 2007-07-01) 1 21897U 92011A 07182.54228483 .99999999 39507-5 71364-3 0 6569 2 21897 062.0262 125.4048 0862131 260.6337 095.0674 14.64030781113010 MOLNIYA 1-84 (Decayed 2008-04-04) 1 22068U 92050A 08090.07126951 .00081002 20360-6 10000-3 0 2504 2 22068 061.4234 120.4751 4232825 269.9804 042.9330 07.21307907115547 MOLNIYA 3-42 1 22178U 92067A 08280.91224987 +.00000353 +00000-0 +14616-2 0 06611 2 22178 062.0054 229.5979 7284852 261.6853 017.6839 02.00627970117094 MOLNIYA 3-43 1 22255U 92085A 08279.43698433 .00948664 31909-4 99716-4 0 2088 2 22255 063.1304 359.8071 6782324 256.9019 026.9542 03.05618707116634 MOLNIYA 1-86 1 22671U 93035A 08280.97843689 .00001470 00000-0 13508-3 0 443 2 22671 062.0419 180.7577 7262542 266.9846 015.9237 02.03223140112868 MOLNIYA 3-45 1 22729U 93049A 08279.85417641 .00000974 00000-0 00000+0 0 7053 2 22729 063.1726 323.6292 7375186 251.0230 021.6586 02.00608827111145 MOLNIYA 1-87 1 22949U 93079A 08280.09897552 +.00001171 +00000-0 +10000-3 0 02398 2 22949 063.9662 092.1336 7083367 249.7344 025.8415 02.00246536108429 MOLNIYA 3-46 1 23211U 94051A 08280.89770586 .00002396 -34875-6 95726-4 0 4549 2 23211 062.0830 146.8229 7524558 257.4447 017.2459 02.01090927103542 MOLNIYA 1-88 1 23420U 94081A 08281.23542053 .00001629 00000-0 55654-3 0 8261 2 23420 062.2513 276.6551 7454549 258.6021 017.2829 02.02195592101282 MOLNIYA 3-47 1 23642U 95042A 08281.47487636 .00000020 00000-0 10000-3 0 2686 2 23642 063.7281 076.1787 7220980 253.8955 021.9525 02.00584081 96475 MOLNIYA 1-89 1 24273U 96045A 08281.31236868 .00003132 39076-6 25731-3 0 7694 2 24273 063.4295 010.1743 7527744 253.6749 068.4653 02.00880438 88985 MOLNIYA 3-48 (Decayed 2007-10-18) 1 24640U 96060A 07291.13395417 .99999999 83187-5 52459-3 0 1139 2 24640 063.3472 327.2473 0128626 257.0956 102.6261 16.43397936 81211 MOLNIYA 1-90 1 24960U 97054A 08281.72580777 .00000262 00000-0 10000-3 0 2265 2 24960 063.9296 119.8235 7100240 255.7929 106.3283 02.00598338 80920 MOLNIYA 3-49 1 25379U 98040A 08280.50935638 -.00000247 00000-0 10000-3 0 7518 2 25379 064.0217 092.1561 7298958 255.8453 020.1546 02.00647276 75231 MOLNIYA 1-91 1 25485U 98054A 08281.88914330 .00000272 00000-0 10000-3 0 3455 2 25485 063.8651 205.4803 6797925 263.8618 052.0320 02.00623367 73445 MOLNIYA 3-50 1 25847U 99036A 08280.10510758 -.00000179 +00000-0 +10000-3 0 04973 2 25847 063.9524 302.8333 7126430 267.8554 016.6409 02.00654543067759 MOLNIYA 3-51 1 26867U 01030A 08280.35831700 .00000204 00000-0 00000+0 0 6350 2 26867 064.0825 232.3601 7081798 270.3242 330.9812 02.00596969 52866 MOLNIYA 1-92 1 27707U 03011A 08281.32472825 -.00000071 00000-0 65181-1 0 824 2 27707 064.8169 235.0708 7065737 269.4620 320.2919 02.00573172 40421 MOLNIYA 3-53 1 27834U 03029A 08280.85633905 +.00000082 +00000-0 +00000-0 0 08938 2 27834 064.8399 234.9221 7066573 270.0915 329.8223 02.00611422038835 MOLNIYA 1-93 1 28163U 04005A 08281.15387850 -.00000247 00000-0 -15353-2 0 6783 2 28163 064.8217 322.4457 7302211 279.9385 011.7736 02.00601033 33967